User: anonymous   Login
Location: Unspecified
(0.0000°N, 0.0000°E)
Time: 10:33:03
(UTC+00:00)
Language:

OFEQ 9 - Orbit

View from above orbital plane
View from above orbital plane
View from above satellite
View from above satellite

Ground track
Ground track

The orbit data is extracted from the following two-line orbital elements,

1 36608U 10031A   18211.09816151 0.00001000  00000-0  40173-4 0    05
2 36608 141.7445 107.7773 0005000 120.5794 239.4199 15.24046509    09
Epoch (UTC): 30 July 2018 02:21:21
Eccentricity: 0.0005000
inclination: 141.7445°
perigee height: 490 km
apogee height: 497 km
right ascension of ascending node: 107.7773°
argument of perigee: 120.5794°
revolutions per day: 15.24046509
mean anomaly at epoch: 239.4199°
orbit number at epoch: 0

The dashed part of the orbit path shows where the satellite is in the earth's shadow,  

DLR